AirNav   Phillips 66 Aviation Fuel
 
 712 users online  

0R7 The Red River Airport
Coushatta, Louisiana, USA

GOING TO COUSHATTA?


FAA INFORMATION EFFECTIVE 11 OCTOBER 2018

Location

FAA Identifier: 0R7
Lat/Long: 31-59-25.0000N / 093-18-27.4000W
31-59.416667N / 093-18.456667W
31.9902778 / -93.3076111
(estimated)
Elevation: 177.2 ft. / 54.0 m (surveyed)
Variation: 05E (1985)
From city: 2 miles SE of COUSHATTA, LA
Time zone: UTC -5 (UTC -6 during Standard Time)
Zip code: 71019

Airport Operations

Airport use: Open to the public
Control tower: no
ARTCC: HOUSTON CENTER
FSS: DE RIDDER FLIGHT SERVICE STATION
NOTAMs facility: DRI (NOTAM-D service available)
Attendance: UNATNDD
Wind indicator: lighted
Segmented circle: no
Lights: MIRL RY 18/36, REIL RYS 18 & 36 PRESET LOW INTST DUSK-DAWN; TO INCR INTST ACTVT - CTAF.
Beacon: white-green (lighted land airport)
Operates sunset to sunrise.

Airport Communications

CTAF: 122.9
WX AWOS-3 at IER (19 nm SE): 119.025 (318-352-1575)

Nearby radio navigation aids

VOR radial/distance  VOR name  Freq  Var
EMGr142/28.6ELM GROVE VORTAC111.2007E
SWBr270/32.1SAWMILL VOR/DME113.7502E

 
NDB name  Hdg/Dist  Freq  Var  ID
NATCHITOCHES326/23.240704EOOC --- --- -.-.
MANSFIELD097/23.741404EMSD -- ... -..

Airport Services

Parking: tiedowns
Airframe service: NONE
Powerplant service: NONE
Bottled oxygen: NONE
Bulk oxygen: NONE

Runway Information

Runway 18/36

Dimensions: 5002 x 74 ft. / 1525 x 23 m
Surface: asphalt, in good condition
Weight bearing capacity: 
Single wheel: 44.0
Runway edge lights: medium intensity
RUNWAY 18  RUNWAY 36
Latitude: 31-59.828942N31-59.004012N
Longitude: 093-18.455817W093-18.457495W
Elevation: 177.0 ft.165.3 ft.
Gradient: 0.2%0.2%
Traffic pattern: leftleft
Runway heading: 175 magnetic, 180 true355 magnetic, 000 true
Markings: nonprecision, in fair conditionnonprecision, in fair condition
Visual slope indicator: 2-light PAPI on left (3.00 degrees glide path)2-light PAPI on left (3.00 degrees glide path)
Runway end identifier lights: yesyes
Touchdown point: yes, no lightsyes, no lights
Obstructions: 53 ft. trees, 1262 ft. from runway, 243 ft. left of centerline, 20:1 slope to clear85 ft. trees, 1695 ft. from runway, 192 ft. right of centerline, 17:1 slope to clear

Airport Ownership and Management from official FAA records

Ownership: Publicly-owned
Owner: RED RIVER PARISH POLICE JURY
PO DRAWER 709
COUSHATTA, LA 71019
Phone 318-932-5719
Manager: JESSIE DAVIS
PO DRAWER 709
COUSHATTA, LA 71019
Phone 318-932-5710

Airport Operational Statistics

Aircraft based on the field: 3
Single engine airplanes: 3
    
Aircraft operations: avg 105/week *
73% local general aviation
27% transient general aviation
* for 12-month period ending 17 April 2018

Additional Remarks

GCO AVBL ON FREQ 135.075 THRU FLT SVCS.
66 FT TREES 253 FT EAST OF RWY CNTRLN FULL LENGTH.

Instrument Procedures

There are no published instrument procedures at 0R7.

Some nearby airports with instrument procedures:

KIER - Natchitoches Regional Airport (19 nm SE)
3F3 - C E 'Rusty' Williams Airport (24 nm W)
3R4 - Hart Airport (28 nm S)
F88 - Jonesboro Airport (32 nm NE)
0R5 - David G Joyce Airport (33 nm E)
 
Loc | Ops | Rwys | IFR | FBO | Links
Com | Nav | Svcs | Stats | Notes


 
Area around 0R7 (The Red River Airport)
 
Road maps at: MapQuest Bing Google
 
Aerial photo
WARNING: Photo may not be current or correct
Aerial photo of 0R7 (The Red River Airport)
Photo by Carl Hennigan
Taken in May 2007

Do you have a better or more recent aerial photo of The Red River Airport that you would like to share? If so, please send us your photo.

 
Sectional chart

 
Airport distance calculator
Flying to The Red River Airport? Find the distance to fly.

From to 0R7

Sunrise and sunset
Times for 21-Oct-2018
 Local
(UTC-5)
 Zulu
(UTC)
Morning civil twilight06:5711:57
Sunrise07:2212:22
Sunset18:3423:34
Evening civil twilight18:5823:58

Current date and time
Zulu (UTC)  21-Oct-2018 12:58:17
Local (UTC-5)  21-Oct-2018 07:58:17
 
METAR
KIER 
19nm SE 
211235Z AUTO 03005KT 10SM CLR 10/08 A3031 RMK AO2 T01000076
KAQV 
21nm S 
211156Z AUTO 02004KT 10SM CLR 11/09 A3025 RMK AO2 SLP245 70011 T01110089 10144 20111 53012
K3F3 
24nm W 
211235Z AUTO 02004KT 10SM CLR 09/08 A3035 RMK AO2 T00910076
KBAD 
36nm NW 
211156Z AUTO 04004KT 10SM CLR 09/06 A3031 RMK AO2 SLP267 70006 T00940058 10120 20093 52015 $
TAF
KBAD 
36nm NW 
211000Z 2110/2216 03006KT 9999 FEW280 WS020/04030KT QNH3022INS BECMG 2111/2112 03006KT 9999 SKC QNH3027INS BECMG 2114/2115 06012G18KT 9999 SKC QNH3023INS BECMG 2202/2203 06006KT 9999 SKC QNH3019INS TX18/2118Z TN09/2110Z
KSHV 
38nm NW 
211141Z 2112/2212 03009KT P6SM FEW260 FM211500 06013KT P6SM SCT250 FM212000 03008KT P6SM SCT250 FM220000 02003KT P6SM SCT250 FM220900 05003KT P6SM FEW250
NOTAMs
Click for the latest NOTAMs
NOTAMs are issued by the DoD/FAA and will open in a separate window not controlled by AirNav.

 

 
 

Would you like to see your business listed on this page?

 If your business provides an interesting product or service to pilots, flight crews, aircraft, or users of the The Red River Airport, you should consider listing it here.  To start the listing process, click on the button below
 
Add a business
 

Other Pages about The Red River Airport

Update a link
 
Copyright © AirNav, LLC. All rights reserved. Privacy Policy  Contact